Location: Unspecified
(0.0000°N, 0.0000°E)
Time: 11:58:33
(UTC-04:00)

Hubble Space Telescope - Pass Details

Date: 30 September 2021
Orbit: 535 x 539 km, 28.5° (Epoch: 24 October)

Event Time Altitude Azimuth Distance (km) Brightness Sun altitude
Exits shadow 01:01:36 - 229° (SW) 1,839 3.1 -12.1°
Reaches altitude 10° 01:01:45 10° 229° (SW) 1,783 3.0 -12.1°
Maximum altitude 01:05:48 56° 150° (SSE) 636 1.3 -11.0°
Drops below altitude 10° 01:09:51 10° 71° (ENE) 1,777 4.7 -10.0°
Sets 01:12:07 0° 67° (ENE) 2,665 5.6 -9.5°
